Header for Extended Forecast Station List Page

Search by: ID | Name | Date | Parm | Value | Avg | % Avg
Sort by: ID | Name | Date | Parm | Value | Avg | % Avg

Enter search or view all records.

Click on id for station plot
#IDNameDateParmValueAvg% Avg
0LEOI1KOOTENAI-AT LEONIA12-06-2021DISCHARGE (KAF)32452252144
1FCFM8NF FLATHEAD-NEAR COLUMBIA FALLS12-06-2021DISCHARGE (KAF)402190212
2WGCM8MF FLATHEAD-NEAR WEST GLACIER12-06-2021DISCHARGE (KAF)245171143
3CFMM8FLATHEAD-AT COLUMBIA FALLS12-06-2021DISCHARGE (KAF)1279985130
4DLGM8CLARK FORK-AT DEER LODGE12-06-2021DISCHARGE (KAF)5452104
5DRMM8CLARK FORK-NR DRUMMOND12-06-2021DISCHARGE (KAF)11712891
6RCCM8ROCK CREEK-NEAR CLINTON12-06-2021DISCHARGE (KAF)4847103
7BONM8BLACKFOOT-NEAR BONNER12-06-2021DISCHARGE (KAF)12414983
8ABOM8CLARK FORK-ABOVE MISSOULA12-06-2021DISCHARGE (KAF)30134986
9BITM8BITTERROOT-NEAR MISSOULA12-06-2021DISCHARGE (KAF)236219107
10BELM8CLARK FORK-BELOW MISSOULA12-06-2021DISCHARGE (KAF)53758092
11STRM8ST. REGIS-NEAR ST. REGIS12-06-2021DISCHARGE (KAF)335659
12SRGM8CLARK FORK-AT ST REGIS12-06-2021DISCHARGE (KAF)67478486
13PRTI1PRIEST-NEAR PRIEST RIVER12-06-2021DISCHARGE (KAF)20625481
14SPOW1SPOKANE-AT SPOKANE12-06-2021DISCHARGE (KAF)1034143672
15SATI1ST MARIES-NEAR SANTA12-06-2021DISCHARGE (KAF)298236
16CIBW1COLUMBIA-AT INTL BOUNDARY12-06-2021DISCHARGE (KAF)2073819652106
17LAUW1KETTLE-AT LAURIER12-06-2021DISCHARGE (KAF)16818491
18TONW1OKANOGAN-NEAR TONASKET12-06-2021DISCHARGE (KAF)406322126
19PATW1METHOW-NEAR PATEROS12-06-2021DISCHARGE (KAF)138113122
20ARDW1ENTIAT-NEAR ARDENVOIR12-06-2021DISCHARGE (KAF)4127148
21PESW1WENATCHEE-AT PESHASTIN12-06-2021DISCHARGE (KAF)435349125
22EASW1YAKIMA-AT EASTON12-06-2021DISCHARGE (KAF)738486
23TNAW1TEANAWAY-BELOW FORKS12-06-2021DISCHARGE (KAF)6565101
24UMTW1YAKIMA-AT UMTANUM12-06-2021DISCHARGE (KAF)30436184
25CLFW1NACHES-NEAR CLIFFDEL12-06-2021DISCHARGE (KAF)9313668
26NACW1NACHES-NEAR NACHES12-06-2021DISCHARGE (KAF)8719046
27PARW1YAKIMA-NEAR PARKER12-06-2021DISCHARGE (KAF)44759475
28KIOW1YAKIMA-AT KIONA12-06-2021DISCHARGE (KAF)61185971
29CHEI1FALL RIVER-NEAR CHESTER12-06-2021DISCHARGE (KAF)9611385
30ANTI1HENRYS FORK-AT ST. ANTHONY12-06-2021DISCHARGE (KAF)31038281
31TEAI1TETON-NEAR ST. ANTHONY12-06-2021DISCHARGE (KAF)779978
32REXI1HENRYS FORK-AT REXBURG12-06-2021DISCHARGE (KAF)36743784
33JKSW4SNAKE-NEAR JACKSON12-06-2021DISCHARGE (KAF)24331777
34ALPW4SNAKE-NEAR ALPINE12-06-2021DISCHARGE (KAF)30137780
35HEII1SNAKE-NEAR HEISE12-06-2021DISCHARGE (KAF)39539999
36SIFI1SNAKE-AB EAGLE ROCK NR IDAHO FALLS12-06-2021DISCHARGE (KAF)60768489
37SHYI1SNAKE-NEAR SHELLEY12-06-2021DISCHARGE (KAF)58368785
38SNAI1SNAKE-AT BLACKFOOT12-06-2021DISCHARGE (KAF)50560084
39BFTI1SNAKE-NEAR BLACKFOOT12-06-2021DISCHARGE (KAF)50558786
40PIHI1PORTNEUF-AT POCATELLO12-06-2021DISCHARGE (KAF)425773
41MILI1SNAKE-AT MILNER12-06-2021DISCHARGE (KAF)M54M
42HOTI1BRUNEAU-NEAR HOT SPRINGS12-06-2021DISCHARGE (KAF)263966
43SWAI1SNAKE-BELOW SWAN FALLS12-06-2021DISCHARGE (KAF)1712187891
44HWRI1BIG LOST-AT HOWELL RANCH NEAR CHILLY12-06-2021DISCHARGE (KAF)151882
45HALI1BIG WOOD-AT HAILEY12-06-2021DISCHARGE (KAF)244061
46BIGI1BOISE-AT GLENWOOD BRIDGE12-06-2021DISCHARGE (KAF)13466202
47PARI1BOISE-NEAR PARMA12-06-2021DISCHARGE (KAF)279198141
48EMMI1PAYETTE-NEAR EMMETT12-06-2021DISCHARGE (KAF)34439587
49WSRI1WEISER-NEAR WEISER12-06-2021DISCHARGE (KAF)20921697
50WEII1SNAKE-AT WEISER12-06-2021DISCHARGE (KAF)2827303393
51WHBI1SALMON-AT WHITEBIRD12-06-2021DISCHARGE (KAF)937112483
52TRYO3GRANDE RONDE-TROY12-06-2021DISCHARGE (KAF)34956862
53ANAW1SNAKE-NEAR ANATONE12-06-2021DISCHARGE (KAF)4427585776
54ORFI1CLEARWATER-AT OROFINO12-06-2021DISCHARGE (KAF)825112573
55SPDI1CLEARWATER-AT SPALDING12-06-2021DISCHARGE (KAF)1449210369
56TCHW1WALLA WALLA-NEAR TOUCHET12-06-2021DISCHARGE (KAF)14920872
57GIBO3UMATILLA-NEAR GIBBON12-06-2021DISCHARGE (KAF)556091
58PDTO3UMATILLA-AT PENDLETON12-06-2021DISCHARGE (KAF)13415587
59MYKO3MCKAY CREEK-NEAR PILOT ROCK12-06-2021DISCHARGE (KAF)4038104
60UMAO3UMATILLA-NEAR UMATILLA12-06-2021DISCHARGE (KAF)14314797
61MONO3NF JOHN DAY-AT MONUMENT12-06-2021DISCHARGE (KAF)10927040
62SERO3JOHN DAY-AT SERVICE CK12-06-2021DISCHARGE (KAF)19142245
63MODO3DESCHUTES-AT MOODY NR BIGGS12-06-2021DISCHARGE (KAF)1259143488
64PITW1KLICKITAT-NEAR PITT12-06-2021DISCHARGE (KAF)409392104
65HODO3HOOD-NEAR TUCKER BRIDGE12-06-2021DISCHARGE (KAF)295252117
66UNDW1WHITE SALMON-NEAR UNDERWOOD12-06-2021DISCHARGE (KAF)28729498
67LYDM8KOOTENAI-LIBBY DAM12-06-2021INFLOW (KAF)1142843135
68HHWM8SF FLATHEAD-HUNGRY HORSE DAM12-06-2021INFLOW (KAF)281271104
69KERM8FLATHEAD-SELI’Š KSANKA QLISPE’ DAM12-06-2021INFLOW (KAF)14481453100
70NOXM8CLARK FORK-NOXON RAPIDS DAM12-06-2021INFLOW (KAF)33323150106
71CABI1CLARK FORK-CABINET GORGE DAM12-06-2021INFLOW (KAF)36793622102
72ALFW1PEND OREILLE-ALBENI FALLS DAM12-06-2021INFLOW (KAF)4106414399
73COEI1COEUR D ALENE-COEUR D ALENE LAKE12-06-2021INFLOW (KAF)1095134382
74LLKW1SPOKANE-AT LONGLAKE12-06-2021INFLOW (KAF)1326171977
75GCDW1COLUMBIA-GRAND COULEE DAM12-06-2021INFLOW (KAF)2232721610103
76CHJW1COLUMBIA-CHIEF JOSEPH DAM12-06-2021INFLOW (KAF)2447823863103
77WELW1COLUMBIA-WELLS DAM12-06-2021INFLOW (KAF)2503424522102
78CHDW1CHELAN-LAKE CHELAN DAM12-06-2021INFLOW (KAF)348211165
79RRHW1COLUMBIA-ROCKY REACH DAM12-06-2021INFLOW (KAF)2578424937103
80WANW1COLUMBIA-WANAPUM DAM12-06-2021INFLOW (KAF)2624825553103
81PRWW1COLUMBIA-PRIEST RAPIDS DAM12-06-2021INFLOW (KAF)2626125629102
82KEDW1YAKIMA-KEECHELUS LAKE12-06-2021INFLOW (KAF)525397
83KADW1KACHESS-KACHESS DAM12-06-2021INFLOW (KAF)5252100
84CLUW1CLE ELUM-CLE ELUM LAKE12-06-2021INFLOW (KAF)10111985
85BUDW1BUMPING-BUMPING LAKE DAM12-06-2021INFLOW (KAF)284070
86RILW1TIETON-RIMROCK LAKE NEAR RIMROCK12-06-2021INFLOW (KAF)577873
87IPDI1HENRYS FORK-ISLAND PARK DAM12-06-2021INFLOW (KAF)7310570
88JLKW4SNAKE-JACKSON LAKE AT DAM12-06-2021INFLOW (KAF)9111877
89PLDI1SF SNAKE-PALISADES DAM12-06-2021INFLOW (KAF)45859477
90RIDI1WILLOW CREEK-RIRIE DAM12-06-2021INFLOW (KAF)91561
91AFRI1SNAKE-AMERICAN FALLS RESERVOIR12-06-2021INFLOW (KAF)1146121295
92MACI1BIG LOST-MACKAY RESERVOIR NEAR MACKAY12-06-2021INFLOW (KAF)273871
93MAGI1BIG WOOD-MAGIC DAM12-06-2021INFLOW (KAF)203753
94LWRI1LITTLE WOOD-LITTLE WOOD DAM12-06-2021INFLOW (KAF)141781
95OWYO3OWYHEE-OWYHEE DAM12-06-2021INFLOW (KAF)257173149
96ARAI1SF BOISE-ANDERSON RANCH DAM12-06-2021INFLOW (KAF)749776
97LUCI1BOISE-LUCKY PEAK DAM12-06-2021INFLOW (KAF)21322595
98WRMO3MALHEUR-WARM SPRINGS DAM12-06-2021INFLOW (KAF)314865
99BERO3MALHEUR-AGENCY VALLEY DAM12-06-2021INFLOW (KAF)202678
100BULO3BULLY CREEK-BULLY CREEK DAM12-06-2021INFLOW (KAF)205404
101CSDI1NF PAYETTE-CASCADE DAM12-06-2021INFLOW (KAF)8411772
102DEDI1DEADWOOD-NEAR LOWMAN12-06-2021INFLOW (KAF)142070
103BRNI1SNAKE-BROWNLEE DAM12-06-2021INFLOW (KAF)3054328793
104DWRI1NF CLEARWATER-DWORSHAK DAM12-06-2021INFLOW (KAF)88089399
105LGDW1SNAKE-LOWER GRANITE DAM12-06-2021INFLOW (KAF)5875813672
106LGSW1SNAKE-LITTLE GOOSE DAM12-06-2021INFLOW (KAF)5875817972
107LMNW1SNAKE-LOWER MONUMENTAL DAM12-06-2021INFLOW (KAF)6156833374
108IHDW1SNAKE-ICE HARBOR DAM12-06-2021INFLOW (KAF)6156836374
109MCDW1COLUMBIA-MCNARY DAM12-06-2021INFLOW (KAF)332873509495
110JDAO3COLUMBIA-JOHN DAY DAM12-06-2021INFLOW (KAF)347973683594
111TDAO3COLUMBIA-THE DALLES DAM12-06-2021INFLOW (KAF)352343750694
112BONO3COLUMBIA-BONNEVILLE DAM12-06-2021INFLOW (KAF)362173931592
113HOPI1PEND OREILLE-PEND OREILLE LAKE NR HOPE12-06-2021LAKE ELEVATION (FT)MMM
114BFEI1KOOTENAI-AT BONNERS FERRY12-06-2021STAGE (FT)MMM
115SJMI1ST JOE-AT ST MARIES12-06-2021STAGE (FT)MMM